Marshalltown, IA

5:33 PM CDT on June 23, 2017 (GMT -0500)
Marshalltown Municipal

Weather History for KMIW - March, 2012

Change the Weather History Date:

Tuesday, March 6, 2012

  Actual Average Record
Temperature  
Mean Temperature 52 °F 31 °F  
Max Temperature 71 °F 40 °F 73 °F (2017)
Min Temperature 33 °F 22 °F 3 °F (2003)
Degree Days  
Heating Degree Days 13 34  
Month to date heating degree days 196 210  
Since 1 July heating degree days 4812 5613  
Cooling Degree Days 0 0  
Month to date cooling degree days 0 0  
Year to date cooling degree days 0 0  
Growing Degree Days 2 (Base 50)    
Moisture  
Dew Point 35 °F    
Average Humidity 51    
Maximum Humidity 70    
Minimum Humidity 31    
Precipitation  
Precipitation 0.00 in 0.05 in 0.42 in (2017)
Month to date precipitation 0.02 0.31  
Year to date precipitation 0.85  
Sea Level Pressure  
Sea Level Pressure 29.75 in    
Wind  
Wind Speed 17 mph (South)    
Max Wind Speed 32 mph    
Max Gust Speed 40 mph    
Visibility 10 miles    
Events      
T = Trace of Precipitation, MM = Missing Value Source: NWS Daily Summary

Daily Weather History Graph

Daily Weather History Graph

Search for Another Location

Airport or City:

Trip Planner

Search our weather history database for the weather conditions in past years. The results will help you decide how hot, cold, wet, or windy it might be!

Date:

Astronomy

Mar. 06, 2012 Rise Set
Actual Time 6:37 AM CST 6:08 PM CST
Civil Twilight 6:09 AM CST 6:36 PM CST
Nautical Twilight 5:37 AM CST 7:08 PM CST
Astronomical Twilight 5:05 AM CST 7:41 PM CST
Moon 4:34 PM CST (3/6) 5:15 AM CST (3/6)
Length of Visible Light 12h 26m
Length of Day
11h 30m
Waxing Gibbous, 96% of the Moon is Illuminated
Mar 6
Waxing Gibbous
Mar 8
Full
Mar 14
Last Quarter
Mar 22
New
Mar 30
First Quarter

Hourly Weather History & Observations

Time (CST) Temp. Windchill Dew Point Humidity Pressure Visibility Wind Dir Wind Speed Gust Speed Precip Events Conditions
12:53 AM 33.1 °F 23.9 °F 25.0 °F 72% 29.94 in 10.0 mi SE 12.7 mph - N/A   Clear
1:53 AM 34.0 °F 22.7 °F 24.1 °F 67% 29.91 in 10.0 mi SSE 19.6 mph - N/A   Clear
2:53 AM 34.0 °F 24.2 °F 24.1 °F 67% 29.86 in 10.0 mi SSE 15.0 mph - N/A   Clear
3:53 AM 35.1 °F 25.5 °F 25.0 °F 67% 29.82 in 10.0 mi SSE 15.0 mph - N/A   Clear
4:53 AM 34.0 °F 25.5 °F 25.0 °F 70% 29.80 in 10.0 mi SSE 11.5 mph - N/A   Clear
5:53 AM 36.0 °F 27.1 °F 27.0 °F 70% 29.79 in 10.0 mi SSE 13.8 mph - N/A   Clear
6:53 AM 39.0 °F 32.3 °F 28.9 °F 67% 29.78 in 10.0 mi SSE 10.4 mph - N/A   Clear
7:53 AM 46.0 °F 39.6 °F 32.0 °F 58% 29.76 in 10.0 mi South 15.0 mph - N/A   Clear
8:53 AM 51.1 °F - 35.1 °F 54% 29.74 in 10.0 mi SSW 19.6 mph 31.1 mph N/A   Clear
10:53 AM 62.1 °F - 41.0 °F 46% 29.71 in 10.0 mi SW 16.1 mph 33.4 mph N/A   Clear
11:53 AM 66.0 °F - 41.0 °F 40% 29.70 in 10.0 mi SW 24.2 mph 33.4 mph N/A   Clear
12:53 PM 68.0 °F - 41.0 °F 37% 29.68 in 10.0 mi SW 27.6 mph 34.5 mph N/A   Clear
1:53 PM 70.0 °F - 41.0 °F 35% 29.66 in 10.0 mi SSW 19.6 mph 35.7 mph N/A   Clear
2:53 PM 71.1 °F - 39.0 °F 31% 29.66 in 10.0 mi SSW 26.5 mph 36.8 mph N/A   Clear
3:53 PM 68.0 °F - 37.0 °F 32% 29.67 in 10.0 mi SSW 18.4 mph 24.2 mph N/A   Clear
5:53 PM 64.0 °F - 39.0 °F 40% 29.68 in 10.0 mi SSW 17.3 mph 25.3 mph N/A   Clear
6:53 PM 62.1 °F - 39.9 °F 44% 29.69 in 10.0 mi SSW 16.1 mph 26.5 mph N/A   Clear
8:53 PM 57.9 °F - 41.0 °F 53% 29.71 in 10.0 mi South 11.5 mph - N/A   Clear
9:53 PM 57.9 °F - 39.0 °F 49% 29.72 in 10.0 mi South 16.1 mph - N/A   Clear
10:53 PM 57.0 °F - 41.0 °F 55% 29.72 in 10.0 mi South 15.0 mph - N/A   Partly Cloudy
11:53 PM 57.9 °F - 44.1 °F 60% 29.71 in 10.0 mi South 15.0 mph - N/A   Mostly Cloudy